Location: Eben
(47.2667°N, 11.2000°E)
Time: 14:53:07
(UTC+00:00)

Daily predictions for brighter satellites

Satellite Brightness Start Highest point End
(mag) Time Altitude Azimuth Time Altitude Azimuth Time Altitude Azimuth
Cosmos 2237 Rocket 2.8 18:37:25 10° NNW 18:42:48 43° NE 18:48:09 10° SE
Helios 1A Rocket 3.3 18:41:45 10° S 18:45:48 68° WSW 18:49:56 10° NNW
Cosmos 1818 3.6 18:41:45 10° SSW 18:47:10 74° ESE 18:52:38 10° NE
DMSP B5D2-2 4.1 18:42:53 10° NNE 18:48:10 82° ESE 18:53:26 10° SSW
H-2A R/B 4.3 18:45:58 10° SSW 18:50:05 26° W 18:54:12 10° NW
Cosmos 1892 3.9 18:49:00 10° NNW 18:52:38 45° W 18:56:15 10° SSW
Cosmos 1825 2.1 18:50:28 10° N 18:54:16 84° E 18:58:02 10° S
Exosat Rocket 3.8 18:51:29 10° NNW 18:57:54 87° WSW 19:02:59 10° SSE
MetOp-A 4.3 18:52:45 10° SSE 18:58:06 80° WSW 19:03:30 10° NNW
Cosmos 2227 Rocket 3.1 18:54:08 10° SSE 18:58:43 26° ESE 19:03:18 10° NE
CZ-4C R/B 4.3 18:54:21 10° W 18:59:00 29° NNW 19:04:30 10° NNE
Abrixas rocket 0.1 18:57:45 10° WSW 18:59:19 87° SE 19:00:44 12° ENE
BREEZE-M DEB (TANK) 3.8 18:57:50 10° WSW 19:00:51 87° NNW 19:08:39 10° ENE
ATLAS 2AS CENTAUR R/B 3.6 18:53:06 10° SW 19:00:56 63° NW 19:08:38 10° NE
Cosmos 1092 Rocket 4.3 18:54:58 10° NNW 19:01:13 75° W 19:07:22 10° S
Cosmos 2058 3.0 18:59:41 10° N 19:03:53 84° W 19:08:02 10° S
Cosmos 2297 Rocket 2.7 19:00:06 10° S 19:05:12 37° ESE 19:10:21 10° NE
FALCON 9 DEB 4.0 19:03:54 10° SSW 19:06:26 24° SE 19:08:59 10° E
Cosmos 1633 3.6 19:03:23 10° NNE 19:06:34 28° ENE 19:09:14 13° SE
Cosmos 405 4.5 19:03:57 10° SW 19:07:13 40° WNW 19:10:33 10° N
Lacrosse 5 rocket 3.6 19:04:41 10° NW 19:07:57 22° N 19:11:21 10° NE
FALCON 9 DEB 3.6 19:08:21 10° SSW 19:11:04 31° SE 19:13:49 10° ENE
Resurs 01 Rocket 2.3 19:08:36 11° SE 19:12:37 40° ENE 19:16:47 10° N
Resurs 1-3 3.6 19:09:58 10° SSE 19:14:18 67° ENE 19:18:40 10° N
Cosmos 2219 3.6 19:09:11 10° S 19:14:20 39° ESE 19:19:31 10° NE
Genesis I 3.7 19:10:40 10° NNW 19:14:34 48° NE 19:17:40 15° ESE
BREEZE-M DEB (TANK) 3.7 19:12:13 10° W 19:16:04 81° N 19:29:50 10° ENE
Cosmos 2333 Rocket 3.8 19:11:26 10° NW 19:16:30 33° WSW 19:21:32 10° SSW
SJ-6B 3.3 19:14:37 10° S 19:18:18 59° W 19:22:03 10° NNW
CZ-2C R/B 4.5 19:15:45 10° N 19:20:25 35° WNW 19:25:08 10° SW
Cosmos 2084 Rocket 3.9 19:18:55 10° S 19:22:31 34° ESE 19:26:11 10° ENE
ERS-2 3.9 19:19:27 10° N 19:22:49 35° WNW 19:26:08 10° SW
Cosmos 389 Rocket 2.4 19:19:26 10° S 19:22:57 75° E 19:26:32 10° NNE
FALCON 9 DEB 3.1 19:20:13 10° SW 19:23:06 42° SE 19:26:01 10° ENE
Cosmos 1190 Rocket 4.4 19:18:18 10° S 19:23:08 40° ESE 19:27:59 10° NE
Ariane Rocket 3.0 19:19:38 10° SSE 19:24:42 85° WSW 19:29:47 10° NNW
Cosmos 614 Rocket 4.0 19:21:30 10° SSW 19:26:39 83° WNW 19:31:47 10° NNE
Terra 3.9 19:25:18 10° E 19:27:22 13° NE 19:29:27 10° NNE
Cosmos 2251 Rocket 4.2 19:23:09 10° SW 19:28:28 62° WNW 19:33:46 10° NNE
FALCON 9 DEB 4.3 19:26:32 10° W 19:29:48 43° NNW 19:33:08 10° ENE
ATLAS 3B R/B 3.6 19:24:32 10° NW 19:31:15 48° WSW 19:38:12 10° S
Cosmos 2279 Rocket 4.0 19:26:59 10° S 19:33:10 85° E 19:39:24 10° N
SPOT 1/Viking Rocket 4.2 19:33:39 18° SE 19:37:06 41° ENE 19:41:59 10° N
SPOT 5 4.4 19:34:55 15° E 19:37:07 20° ENE 19:40:36 10° NNE
Cosmos 1980 3.9 19:33:29 10° NNW 19:39:11 73° WSW 19:44:12 13° SSE
Cosmos-2242 3.3 19:35:48 14° SSE 19:39:17 45° E 19:43:23 10° NNE
SL-16 R/B 2.8 19:34:23 10° NNW 19:39:51 44° NE 19:43:26 20° ESE
USA 215 3.7 19:34:16 13° E 19:40:04 56° NNE 19:46:26 10° NW
Cosmos 2151 3.0 19:36:43 10° N 19:41:03 70° E 19:44:09 18° SSE
FALCON 9 DEB 2.8 19:41:53 10° SW 19:44:53 54° SE 19:46:41 21° ENE
SPOT 3 Rocket 3.5 19:40:39 15° SSE 19:44:57 77° ENE 19:50:09 10° NNW
COSMOS 2455 3.3 19:43:02 10° S 19:48:29 37° ESE 19:53:57 10° NE
SL-4 R/B 2.2 19:47:32 10° SW 19:51:50 59° SSE 19:56:26 10° ENE
Cosmos 2219 Rocket 4.5 19:49:17 10° NW 19:53:18 20° W 19:57:17 10° SW
BREEZE M DEB (TANK) 4.2 19:51:34 10° SSW 19:55:06 41° SE 20:05:02 10° ENE
ERS-1 Rocket 4.0 19:53:53 22° ESE 19:56:02 31° ENE 20:00:25 10° N
IGS 5A 3.4 19:54:21 22° SSE 19:57:00 89° W 20:01:11 10° NNW
Cosmos 2266 Rocket 4.0 19:51:26 10° N 19:57:51 78° E 20:02:35 18° SSE
OBJECT-B 3.6 19:56:06 10° SW 19:58:20 17° W 20:00:35 10° NW
Landsat 7 3.7 19:55:13 21° SSE 19:58:23 83° ENE 20:03:11 10° NNW
Cosmos 2221 4.0 20:05:05 20° E 20:05:05 20° E 20:07:56 10° NE
ARIANE 5 R/B 3.0 20:04:04 32° SE 20:05:42 49° ENE 20:09:56 10° N
Cosmos 2344 4.2 19:59:13 10° WSW 20:06:31 57° NW 20:14:35 10° NE
USA 245 3.0 20:05:50 44° SE 20:06:36 57° ENE 20:09:35 10° N
Cosmos 407 Rocket 3.8 20:02:08 10° SSW 20:07:14 69° WNW 20:12:27 10° NNE
MetOp-B 4.2 20:09:17 22° S 20:12:47 82° WSW 20:18:11 10° NNW
Meteor 2-3 Rocket 3.8 20:08:05 10° NNW 20:13:51 77° W 20:17:47 21° S
Meteor 1-27 4.2 20:14:09 15° S 20:18:55 79° E 20:24:46 10° NNE
Cosmos 44 Rocket 3.5 20:14:00 10° SSW 20:18:55 53° ESE 20:23:59 10° NE
Cosmos 1140 Rocket 4.0 20:15:28 10° SW 20:20:32 61° WNW 20:25:39 10° NNE
CZ-2C R/B 3.7 20:20:03 10° NNE 20:24:31 79° WNW 20:27:43 19° SSW
Cosmos 1954 Rocket 3.8 20:19:29 10° SSW 20:24:34 81° ESE 20:29:46 10° NNE
Cosmos 2237 Rocket 3.5 20:21:44 10° NW 20:26:44 34° WSW 20:30:48 14° SSW
Timation 2 Rocket 4.2 20:21:04 10° SW 20:27:37 75° WNW 20:33:56 10° NNE
Meteor 2-15 4.5 20:29:12 34° SSE 20:31:45 58° E 20:37:42 10° NNE
Cosmos 2263 Rocket 3.4 20:34:38 24° E 20:34:38 24° E 20:38:07 10° NE
Spot 2 Rocket 3.4 20:32:07 37° SSE 20:34:10 86° WSW 20:39:17 10° NNW
CARTOSAT-1 3.4 20:33:28 53° SSE 20:34:28 82° ENE 20:38:48 10° NNW
Aureole 1 Rocket 4.3 20:35:06 32° E 20:35:06 32° E 20:38:51 10° NE
Cosmos 1766 Rocket 3.5 20:30:44 10° NNW 20:35:06 77° W 20:36:22 45° S
USA 229 DEB 4.4 20:28:27 10° NW 20:35:30 52° NE 20:39:35 27° ESE
USA 229 4.4 20:28:33 10° NW 20:35:35 51° NE 20:39:41 27° ESE
BREEZE M DEB (TANK) 2.4 20:29:16 10° W 20:35:46 71° NNW 20:36:34 46° NE
FALCON 9 DEB 3.7 20:39:03 10° WSW 20:41:38 49° WNW 20:41:38 49° WNW
Cosmos 2227 Rocket 2.9 20:36:50 10° SW 20:42:23 55° WNW 20:47:59 10° NNE
Cosmos 2082 3.6 20:37:15 12° SSW 20:42:25 85° ESE 20:48:05 10° NNE
Okean 3 Rocket 3.9 20:39:45 10° NNW 20:44:15 63° W 20:45:39 41° SSW
H-2A R/B 4.2 20:41:20 10° NNE 20:44:43 39° ENE 20:44:43 39° ENE
FALCON 9 DEB 3.9 20:43:47 10° W 20:46:28 44° NW 20:46:28 44° NW
Lacrosse 5 rocket 3.0 20:44:17 10° NW 20:48:09 31° NNE 20:49:58 23° ENE
Cosmos 2297 Rocket 3.5 20:43:54 10° WSW 20:49:12 41° NW 20:54:34 10° NNE
Cosmos 1869 3.8 20:47:58 38° SW 20:49:12 57° WNW 20:53:06 10° N
Resurs 01 Rocket 3.6 20:46:10 12° SW 20:49:14 24° W 20:52:51 10° NW
Cosmos 1553 Rocket 4.2 20:48:26 43° ESE 20:49:38 48° E 20:55:28 10° NNE
Cosmos 468 Rocket 3.9 20:45:25 10° NNW 20:50:36 88° WSW 20:51:46 55° SSE
Meteor 1-4 Rocket 3.0 20:50:30 50° WSW 20:50:53 53° WNW 20:54:22 10° N
NOSS 3-1 (A) 4.3 20:46:19 10° NW 20:53:33 60° NE 20:57:37 32° ESE
Cosmos 1603 4.3 20:49:03 10° NNW 20:54:34 46° NE 20:55:59 38° E
Cosmos 841 Rocket 3.8 20:50:20 10° NNW 20:55:26 50° ENE 20:56:15 46° E
FALCON 9 DEB 4.5 20:55:57 10° W 20:58:12 34° NW 20:58:12 34° NW
Cosmos 1763 Rocket 3.5 20:58:21 10° NNW 21:03:25 72° WSW 21:04:17 58° SSW
Terra 1.6 21:03:52 71° SE 21:04:21 84° ENE 21:09:09 10° NNW
Cosmos 1814 Rocket 4.4 21:06:02 10° NNW 21:11:12 49° ENE 21:11:45 47° E
Cosmos 540 Rocket 3.3 21:06:05 10° NNW 21:11:14 75° ENE 21:11:41 69° ESE
Cosmos 921 Rocket 3.5 21:08:20 10° N 21:12:21 50° NE 21:12:21 50° NE
SPOT 5 3.1 21:14:08 52° SW 21:14:44 57° W 21:19:31 10° NNW
Meteor 2-2 Rocket 4.2 21:15:41 48° SSW 21:17:24 81° W 21:23:08 10° N
NOSS 3-1 (C) 4.0 21:09:57 10° NW 21:17:27 81° SW 21:20:23 46° SSE
Cosmos 1842 Rocket 3.7 21:20:26 68° W 21:20:36 69° W 21:25:05 10° N
USA 215 3.3 21:21:35 51° S 21:23:03 63° SW 21:29:33 10° WNW
SL-16 R/B 3.3 21:18:47 10° NW 21:23:49 33° WSW 21:25:19 29° SW
SL-08 ROCKET BODY 4.4 21:24:25 10° NNW 21:30:29 76° W 21:31:36 59° SSW
SL-4 R/B 2.9 21:27:08 10° W 21:31:38 57° NNW 21:33:32 33° NE
COSMOS 2455 3.8 21:28:31 10° WSW 21:34:18 47° NW 21:40:08 10° NNE
ERS-1 Rocket 3.9 21:33:53 35° WSW 21:34:43 38° W 21:39:25 10° NNW
ATLAS 5 CENTAUR R/B 4.5 21:35:59 10° NNW 21:39:20 17° NNE 21:43:02 10° ENE
Cosmos 2227 4.1 21:40:44 76° ESE 21:40:45 76° ESE 21:46:31 10° NNE
Cosmos 2221 3.5 21:41:54 40° W 21:42:04 40° WNW 21:46:08 10° N
Sich 1 3.8 21:38:16 10° N 21:41:28 46° NNE 21:41:28 46° NNE
Cosmos 1805 Rocket 4.1 21:38:29 10° N 21:41:58 56° N 21:41:58 56° N
Meteor 1-20 Rocket 4.2 21:42:06 10° N 21:47:53 68° ENE 21:48:01 67° E
Cosmos 1943 3.1 21:44:23 10° NNW 21:50:02 79° WSW 21:50:06 79° SW
Cosmos 1745 Rocket 3.9 21:46:17 10° NNW 21:52:35 75° W 21:53:25 65° SSW
SeaSat 1 3.4 21:48:10 10° NE 21:51:19 36° ENE 21:51:19 36° ENE
Cosmos 1570 Rocket 4.0 21:48:12 10° NNW 21:53:15 74° W 21:53:15 74° W
Iridium 4 Rocket 4.4 21:58:16 38° ENE 21:58:16 38° ENE 22:02:29 10° NNE
Cosmos 1709 Rocket 3.8 21:51:36 10° N 21:57:50 74° E 21:58:09 72° ESE
Spot 4 4.2 22:00:15 59° NNE 22:00:15 59° NNE 22:04:28 10° N
Cosmos 1633 Rocket 4.2 21:59:12 10° N 22:02:12 38° NNE 22:02:12 38° NNE
S3M 4.2 22:05:25 57° SW 22:06:32 69° W 22:12:57 10° N
Cosmos 883 Rocket 4.3 22:06:43 80° SE 22:06:58 82° E 22:13:18 10° N
Cosmos 1666 Rocket 4.5 22:09:44 10° N 22:12:59 47° N 22:12:59 47° N
Cosmos 2263 Rocket 2.7 22:16:16 49° W 22:17:10 55° WNW 22:22:40 10° NNE
Cosmos 968 Rocket 4.2 22:22:53 45° NE 22:22:53 45° NE 22:26:42 10° NNE
USA 229 DEB 4.2 22:19:32 10° NW 22:26:34 49° WSW 22:27:01 49° SW
USA 229 4.2 22:19:37 10° NW 22:26:40 50° WSW 22:27:07 49° SW
Lacrosse 5 rocket 3.1 22:23:17 10° NW 22:25:35 31° WNW 22:25:35 31° WNW
Cosmos 1844 Rocket 3.7 22:30:56 36° ENE 22:30:56 36° ENE 22:34:37 10° NE
Cosmos 1151 Rocket 4.4 22:34:17 37° N 22:34:17 37° N 22:36:58 10° N
ALOS 2 3.7 22:35:37 42° N 22:35:37 42° N 22:38:36 10° N
CZ-4C R/B 4.5 22:34:52 10° NNW 22:40:34 29° NNE 22:47:08 10° E
Terra 4.2 22:42:44 13° W 22:42:44 13° W 22:44:48 10° WNW
Cosmos 1833 Rocket 4.5 22:49:16 10° N 22:53:53 25° NE 22:56:05 20° E
Cosmos 1486 Rocket 4.4 22:57:26 61° NNE 22:57:26 61° NNE 23:01:51 10° NNE
Meteor 1-5 Rocket 4.3 22:56:29 10° N 23:01:31 70° N 23:01:31 70° N
Cosmos 2154 Rocket 4.2 22:57:41 10° N 23:04:01 62° ENE 23:04:10 62° E
Meteor 2-6 Rocket 4.4 23:11:23 63° NNE 23:11:23 63° NNE 23:15:54 10° NNE
SL-4 R/B 4.2 23:07:14 10° WNW 23:09:09 23° WNW 23:09:09 23° WNW
Cosmos 2184 Rocket 3.9 23:08:48 10° N 23:14:58 79° WNW 23:14:58 79° WNW
SJ 16-02 3.9 23:17:22 13° ENE 23:17:22 13° ENE 23:18:23 10° ENE
Cosmos 2278 Rocket 4.0 23:19:29 20° E 23:19:29 20° E 23:22:36 10° NE
ATLAS 5 CENTAUR R/B 3.1 23:19:59 10° NNW 23:25:11 46° NE 23:27:07 35° E
SeaSat 1 3.9 23:26:04 10° N 23:30:18 29° NW 23:31:05 28° WNW
Cosmos 2341 Rocket 4.4 23:24:11 10° N 23:30:24 52° ENE 23:31:01 50° E
Cosmos 1295 Rocket 4.4 23:24:25 10° N 23:30:44 81° E 23:30:44 81° E
Cosmos 1241 Rocket 4.5 23:33:02 82° W 23:33:15 84° NW 23:39:55 10° NE
Cosmos 1844 3.9 23:41:40 65° NW 23:41:40 65° NW 23:47:10 10° NNE
Cosmos 2074 Rocket 4.4 23:35:27 10° NNW 23:41:12 49° W 23:41:12 49° W
USA 281 3.0 23:43:08 80° SSE 23:43:34 89° ENE 23:50:13 10° NNW
COSMOS 2406 3.7 23:38:47 10° NNW 23:44:21 52° ENE 23:44:55 50° ENE
Cosmos 962 Rocket 4.3 23:46:20 10° N 23:52:33 83° E 23:52:36 82° E
Gbstr 26 Del rocket 4.0 23:53:47 63° E 23:53:47 63° E 23:58:29 10° ENE
